Whidbey Island, WA
on Friday, February 1, 2013

Friday
Previous Day Next Day
Daily Summary
 ActualAverageRecord
Temperature
Mean Temperature °F °F  
Max Temperature 50°F 46°F 55°F (1998)
Min Temperature 37°F 35°F 28°F (2007)
Degree Days
Heating Degree Days 22    
Moisture
Dew Point 40°F   
Average Humidity 86    
Maximum Humidity 90    
Minimum Humidity 77    
Precipitation
Precipitation 0.00 in in in ()
Wind
Wind Speed 5 mph   
Max Wind Speed 12 mph   
Max Gust Speed mph   
Visibility 9 miles   
Events Fog   
Averages and records for this station are not official NWS values.
Key: T is trace of precipitation, MM is missing value
Source: NWS Daily Summary
Seasonal Weather Averages
Time(PST)TemperatureDew PointHumidity Pressure Visibility Wind DirectionWind SpeedGust SpeedPrecipitationEvents Conditions
12:56 AM 45.0°F 42.1°F 90% 30.36 in 10.0 miles West 6.9 mph - N/A   Overcast
1:56 AM 45.0°F 41.0°F 86% 30.38 in 10.0 miles WSW 11.5 mph - N/A   Overcast
2:56 AM 45.0°F 41.0°F 86% 30.39 in 10.0 miles West 11.5 mph - N/A   Overcast
3:56 AM 45.0°F 41.0°F 86% 30.40 in 10.0 miles West 9.2 mph - N/A   Overcast
4:56 AM 45.0°F 39.9°F 82% 30.40 in 10.0 miles WNW 8.1 mph - N/A   Overcast
5:56 AM 44.1°F 39.9°F 85% 30.41 in 10.0 miles Calm Calm - N/A   Overcast
6:56 AM 44.1°F 39.9°F 85% 30.41 in 8.0 miles Calm Calm - N/A   Overcast
7:56 AM 43.0°F 39.9°F 89% 30.40 in 10.0 miles Calm Calm - N/A   Overcast
8:05 AM 42.8°F 39.2°F 87% 30.39 in 9.0 miles Calm Calm - N/A   Overcast
8:56 AM 44.1°F 41.0°F 89% 30.42 in 10.0 miles Calm Calm - N/A   Overcast
9:56 AM 46.0°F 42.1°F 86% 30.43 in 10.0 miles Calm Calm - N/A   Overcast
10:56 AM 48.0°F 43.0°F 83% 30.44 in 10.0 miles Calm Calm - N/A   Overcast
11:56 AM 50.0°F 43.0°F 77% 30.43 in 10.0 miles NW 4.6 mph - N/A   Overcast
12:56 PM 48.0°F 43.0°F 83% 30.42 in 10.0 miles West 5.8 mph - N/A   Overcast
1:56 PM 48.0°F 42.1°F 80% 30.42 in 10.0 miles NNW 6.9 mph - N/A   Overcast
2:56 PM 46.9°F 42.1°F 83% 30.42 in 10.0 miles NNW 6.9 mph - N/A   Mostly Cloudy
3:56 PM 46.9°F 41.0°F 80% 30.42 in 10.0 miles NW 9.2 mph - N/A   Mostly Cloudy
4:56 PM 45.0°F 39.9°F 82% 30.41 in 10.0 miles NNW 4.6 mph - N/A   Overcast
5:56 PM 43.0°F 39.0°F 86% 30.42 in 10.0 miles North 5.8 mph - N/A   Mostly Cloudy
6:56 PM 41.0°F 37.9°F 89% 30.43 in 10.0 miles NNW 6.9 mph - N/A   Partly Cloudy
7:56 PM 41.0°F 37.9°F 89% 30.43 in 10.0 miles NNW 5.8 mph - N/A   Partly Cloudy
8:56 PM 39.0°F 36.0°F 89% 30.42 in 10.0 miles Calm Calm - N/A   Partly Cloudy
9:56 PM 37.9°F 35.1°F 89% 30.42 in 6.0 miles Calm Calm - N/A   Clear
10:56 PM 39.0°F 36.0°F 89% 30.42 in 7.0 miles North 4.6 mph - N/A Fog Patches of Fog
11:56 PM 37.9°F 35.1°F 89% 30.43 in 6.0 miles Calm Calm - N/A   Scattered Clouds
Moon Phase
Feb. 01 Feb. 03 Feb. 10 Feb. 17 Feb. 25
Sunrise:07:38 AM (PST) Moon Rise:11:59 PM (PST)2/1
Sunset:05:10 PM (PST) Moon Set:09:43 AM (PST)2/1

Copyright © 2014 The Weather Underground, Inc.